This is the latest recevied weather packets stored in our database for station/object DG3NAD-21. If no packets are shown the sender has not sent any weather packets the latest 10 day(s).
| Time | Temp. | Humidity | Pressure | Rain* | Wind** | Luminosity | Snow |
|---|---|---|---|---|---|---|---|
| 1788443901 | 23.33° C | 54% | 1022.6 hPa | - | - | - | - |
| 1788443000 | 22.78° C | 54% | 1022.9 hPa | - | - | - | - |
| 1788442100 | 22.78° C | 54% | 1023 hPa | - | - | - | - |
| 1788441200 | 22.78° C | 54% | 1023.3 hPa | - | - | - | - |
| 1788440300 | 22.78° C | 53% | 1023.6 hPa | - | - | - | - |
| 1788439400 | 22.78° C | 51% | 1024 hPa | - | - | - | - |
| 1788438500 | 22.78° C | 47% | 1023.6 hPa | - | - | - | - |
| 1788437600 | 22.78° C | 47% | 1023.5 hPa | - | - | - | - |
| 1788436700 | 23.33° C | 47% | 1023.2 hPa | - | - | - | - |
| 1788435800 | 23.33° C | 47% | 1023.3 hPa | - | - | - | - |
| 1788434899 | 23.33° C | 47% | 1023.5 hPa | - | - | - | - |
| 1788433999 | 22.78° C | 48% | 1023.7 hPa | - | - | - | - |
| 1788433099 | 22.22° C | 49% | 1023.9 hPa | - | - | - | - |
| 1788432199 | 21.67° C | 51% | 1024 hPa | - | - | - | - |
| 1788431299 | 21.67° C | 51% | 1024.2 hPa | - | - | - | - |
| 1788430399 | 21.11° C | 52% | 1024.5 hPa | - | - | - | - |
| 1788429499 | 21.11° C | 52% | 1024.5 hPa | - | - | - | - |
| 1788428599 | 20.56° C | 53% | 1024.6 hPa | - | - | - | - |
| 1788427699 | 20.56° C | 53% | 1024.8 hPa | - | - | - | - |
| 1788426799 | 20° C | 55% | 1025 hPa | - | - | - | - |
| 1788425899 | 20° C | 55% | 1024.8 hPa | - | - | - | - |
| 1788424998 | 19.44° C | 55% | 1024.7 hPa | - | - | - | - |
| 1788424098 | 19.44° C | 55% | 1024.8 hPa | - | - | - | - |
| 1788423198 | 19.44° C | 56% | 1024.9 hPa | - | - | - | - |
| 1788422298 | 19.44° C | 56% | 1024.9 hPa | - | - | - | - |
* Rain since midnight (hover to see other rain measurements)
** Current wind speed in m/s (hover to see current wind gust speed)